Overview Statistics Trail Chart Weather Telemetry Raw packets
 

This is the latest recevied weather packets stored in our database for station/object KE5QKR. If no packets are shown the sender has not sent any weather packets the latest 10 day(s).

<< 96 97 98 99 100 101 102 >>
Time Temp. Humidity Pressure Rain* Wind** Luminosity Snow
1777236895 29.44° C 63% 1009.7 hPa 0 mm - 417 W/m² -
1777236590 29.44° C 62% 1009.7 hPa 0 mm - 410 W/m² -
1777236286 29.44° C 64% 1009.8 hPa 0 mm - 451 W/m² -
1777235983 29.44° C 63% 1009.6 hPa 0 mm - 448 W/m² -
1777235679 29.44° C 63% 1009.8 hPa 0 mm - 481 W/m² -
1777235376 29.44° C 61% 1009.8 hPa 0 mm - 505 W/m² -
1777235072 29.44° C 64% 1009.6 hPa 1.27 mm - 380 W/m² -
1777234768 30° C 64% 1009.9 hPa 0 mm - 394 W/m² -
1777234464 28.89° C 64% 1009.9 hPa 0 mm - 518 W/m² -
1777234159 28.33° C 64% 1009.8 hPa 0 mm - 431 W/m² -
1777233855 28.89° C 66% 1009.9 hPa 0 mm - 385 W/m² -
1777233552 28.33° C 61% 1009.9 hPa 0 mm - 297 W/m² -
1777233251 29.44° C 64% 1010 hPa 0 mm - 247 W/m² -
1777232946 29.44° C 64% 1009.9 hPa 0 mm - 481 W/m² -
1777232644 29.44° C 65% 1009.9 hPa 0 mm - 564 W/m² -
1777232343 29.44° C 67% 1010 hPa 0 mm - 542 W/m² -
1777232039 28.89° C 67% 1010 hPa 0 mm - 568 W/m² -
1777231736 29.44° C 67% 1009.9 hPa 0 mm - 582 W/m² -
1777231433 29.44° C 66% 1010.3 hPa 1.78 mm - 598 W/m² -
1777231129 28.89° C 69% 1010 hPa 1.78 mm - 619 W/m² -
1777230824 28.33° C 69% 1010.4 hPa 0 mm - 654 W/m² -
1777230520 28.33° C 68% 1010.4 hPa 0 mm - 643 W/m² -
1777230217 28.33° C 67% 1010.6 hPa 0 mm - 668 W/m² -
1777229913 28.33° C 66% 1010.3 hPa 0 mm - 694 W/m² -
1777229610 27.78° C 69% 1010.4 hPa 0 mm - 321 W/m² -

* Rain latest hour (hover to see other rain measurements)
** Current wind speed in m/s (hover to see current wind gust speed)